Year,Month,Day,Hour,Minute,Value (Times are PST for temperature in C)
2014,04,02,00,00,8.80
2014,04,02,00,01,8.80
2014,04,02,00,02,8.80
2014,04,02,00,03,8.80
2014,04,02,00,04,8.80
2014,04,02,00,05,8.80
2014,04,02,00,06,8.80
2014,04,02,00,07,8.80
2014,04,02,00,08,8.70
2014,04,02,00,09,8.70
2014,04,02,00,10,8.70
2014,04,02,00,11,8.70
2014,04,02,00,12,8.70
2014,04,02,00,13,8.70
2014,04,02,00,14,8.70
2014,04,02,00,15,8.70
2014,04,02,00,16,8.70
2014,04,02,00,17,8.70
2014,04,02,00,18,8.70
2014,04,02,00,19,8.70
2014,04,02,00,20,8.60
2014,04,02,00,21,8.60
2014,04,02,00,22,8.60
2014,04,02,00,23,8.60
2014,04,02,00,24,8.60
2014,04,02,00,25,8.60
2014,04,02,00,26,8.60
2014,04,02,00,27,8.60
2014,04,02,00,28,8.50
2014,04,02,00,29,8.60
2014,04,02,00,30,8.60
2014,04,02,00,31,8.60
2014,04,02,00,32,8.60
2014,04,02,00,33,8.50
2014,04,02,00,34,8.50
2014,04,02,00,35,8.50
2014,04,02,00,36,8.50
2014,04,02,00,37,8.50
2014,04,02,00,38,8.50
2014,04,02,00,39,8.50
2014,04,02,00,40,8.40
2014,04,02,00,41,8.40
2014,04,02,00,42,8.40
2014,04,02,00,43,8.40
2014,04,02,00,44,8.40
2014,04,02,00,45,8.30
2014,04,02,00,46,8.30
2014,04,02,00,47,8.30
2014,04,02,00,48,8.30
2014,04,02,00,49,8.20
2014,04,02,00,50,8.20
2014,04,02,00,51,8.20
2014,04,02,00,52,8.20
2014,04,02,00,53,8.20
2014,04,02,00,54,8.10
2014,04,02,00,55,8.10
2014,04,02,00,56,8.10
2014,04,02,00,57,8.10
2014,04,02,00,58,8.10
2014,04,02,00,59,8.10
2014,04,02,01,00,8.00
2014,04,02,01,01,8.00
2014,04,02,01,02,8.00
2014,04,02,01,03,8.00
2014,04,02,01,04,8.00
2014,04,02,01,05,8.00
2014,04,02,01,06,8.00
2014,04,02,01,07,7.90
2014,04,02,01,08,7.90
2014,04,02,01,09,7.90
2014,04,02,01,10,7.90
2014,04,02,01,11,7.90
2014,04,02,01,12,7.90
2014,04,02,01,13,7.90
2014,04,02,01,14,7.90
2014,04,02,01,15,7.90
2014,04,02,01,16,7.80
2014,04,02,01,17,7.80
2014,04,02,01,18,7.80
2014,04,02,01,19,7.80
2014,04,02,01,20,7.80
2014,04,02,01,21,7.80
2014,04,02,01,22,7.80
2014,04,02,01,23,7.80
2014,04,02,01,24,7.80
2014,04,02,01,25,7.80
2014,04,02,01,26,7.80
2014,04,02,01,27,7.80
2014,04,02,01,28,7.80
2014,04,02,01,29,7.80
2014,04,02,01,30,7.80
2014,04,02,01,31,7.80
2014,04,02,01,32,7.80
2014,04,02,01,33,7.80
2014,04,02,01,34,7.80
2014,04,02,01,35,7.80
2014,04,02,01,36,7.80
2014,04,02,01,37,7.80
2014,04,02,01,38,7.80
2014,04,02,01,39,7.80
2014,04,02,01,40,7.80
2014,04,02,01,41,7.80
2014,04,02,01,42,7.80
2014,04,02,01,43,7.80
2014,04,02,01,44,7.80
2014,04,02,01,45,7.80
2014,04,02,01,46,7.80
2014,04,02,01,47,7.70
2014,04,02,01,48,7.70
2014,04,02,01,49,7.70
2014,04,02,01,50,7.70
2014,04,02,01,51,7.70
2014,04,02,01,52,7.70
2014,04,02,01,53,7.70
2014,04,02,01,54,7.60
2014,04,02,01,55,7.60
2014,04,02,01,56,7.60
2014,04,02,01,57,7.60
2014,04,02,01,58,7.60
2014,04,02,01,59,7.60
2014,04,02,02,00,7.60
2014,04,02,02,01,7.60
2014,04,02,02,02,7.60
2014,04,02,02,03,7.60
2014,04,02,02,04,7.60
2014,04,02,02,05,7.50
2014,04,02,02,06,7.60
2014,04,02,02,07,7.60
2014,04,02,02,08,7.60
2014,04,02,02,09,7.60
2014,04,02,02,10,7.60
2014,04,02,02,11,7.60
2014,04,02,02,12,7.60
2014,04,02,02,13,7.60
2014,04,02,02,14,7.60
2014,04,02,02,15,7.60
2014,04,02,02,16,7.60
2014,04,02,02,17,7.60
2014,04,02,02,18,7.50
2014,04,02,02,19,7.50
2014,04,02,02,20,7.50
2014,04,02,02,21,7.50
2014,04,02,02,22,7.50
2014,04,02,02,23,7.50
2014,04,02,02,24,7.50
2014,04,02,02,25,7.50
2014,04,02,02,26,7.50
2014,04,02,02,27,7.40
2014,04,02,02,28,7.40
2014,04,02,02,29,7.40
2014,04,02,02,30,7.40
2014,04,02,02,31,7.40
2014,04,02,02,32,7.30
2014,04,02,02,33,7.30
2014,04,02,02,34,7.30
2014,04,02,02,35,7.30
2014,04,02,02,36,7.30
2014,04,02,02,37,7.30
2014,04,02,02,38,7.20
2014,04,02,02,39,7.20
2014,04,02,02,40,7.20
2014,04,02,02,41,7.20
2014,04,02,02,42,7.20
2014,04,02,02,43,7.20
2014,04,02,02,44,7.10
2014,04,02,02,45,7.10
2014,04,02,02,46,7.10
2014,04,02,02,47,7.10
2014,04,02,02,48,7.10
2014,04,02,02,49,7.10
2014,04,02,02,50,7.00
2014,04,02,02,51,7.00
2014,04,02,02,52,7.00
2014,04,02,02,53,7.00
2014,04,02,02,54,7.00
2014,04,02,02,55,7.00
2014,04,02,02,56,7.00
2014,04,02,02,57,7.00
2014,04,02,02,58,7.00
2014,04,02,02,59,7.00
2014,04,02,03,00,6.90
2014,04,02,03,01,6.90
2014,04,02,03,02,6.90
2014,04,02,03,03,7.00
2014,04,02,03,04,7.00
2014,04,02,03,05,7.00
2014,04,02,03,06,7.00
2014,04,02,03,07,7.00
2014,04,02,03,08,7.00
2014,04,02,03,09,7.00
2014,04,02,03,10,7.00
2014,04,02,03,11,7.00
2014,04,02,03,12,7.00
2014,04,02,03,13,7.00
2014,04,02,03,14,7.10
2014,04,02,03,15,7.10
2014,04,02,03,16,7.10
2014,04,02,03,17,7.10
2014,04,02,03,18,7.10
2014,04,02,03,19,7.10
2014,04,02,03,20,7.10
2014,04,02,03,21,7.10
2014,04,02,03,22,7.10
2014,04,02,03,23,7.10
2014,04,02,03,24,7.00
2014,04,02,03,25,7.00
2014,04,02,03,26,7.00
2014,04,02,03,27,7.00
2014,04,02,03,28,7.00
2014,04,02,03,29,7.00
2014,04,02,03,30,6.90
2014,04,02,03,31,6.90
2014,04,02,03,32,6.90
2014,04,02,03,33,7.00
2014,04,02,03,34,7.00
2014,04,02,03,35,7.00
2014,04,02,03,36,7.00
2014,04,02,03,37,7.00
2014,04,02,03,38,7.00
2014,04,02,03,39,7.00
2014,04,02,03,40,7.00
2014,04,02,03,41,7.00
2014,04,02,03,42,7.00
2014,04,02,03,43,6.90
2014,04,02,03,44,6.90
2014,04,02,03,45,6.90
2014,04,02,03,46,6.90
2014,04,02,03,47,6.80
2014,04,02,03,48,6.80
2014,04,02,03,49,6.80
2014,04,02,03,50,6.80
2014,04,02,03,51,6.70
2014,04,02,03,52,6.70
2014,04,02,03,53,6.70
2014,04,02,03,54,6.60
2014,04,02,03,55,6.60
2014,04,02,03,56,6.60
2014,04,02,03,57,6.60
2014,04,02,03,58,6.50
2014,04,02,03,59,6.40
2014,04,02,04,00,6.40
2014,04,02,04,01,6.30
2014,04,02,04,02,6.30
2014,04,02,04,03,6.30
2014,04,02,04,04,6.30
2014,04,02,04,05,6.20
2014,04,02,04,06,6.20
2014,04,02,04,07,6.20
2014,04,02,04,08,6.20
2014,04,02,04,09,6.20
2014,04,02,04,10,6.20
2014,04,02,04,11,6.20
2014,04,02,04,12,6.20
2014,04,02,04,13,6.10
2014,04,02,04,14,6.10
2014,04,02,04,15,6.00
2014,04,02,04,16,6.00
2014,04,02,04,17,6.00
2014,04,02,04,18,5.90
2014,04,02,04,19,5.90
2014,04,02,04,20,5.80
2014,04,02,04,21,5.80
2014,04,02,04,22,5.80
2014,04,02,04,23,5.70
2014,04,02,04,24,5.70
2014,04,02,04,25,5.60
2014,04,02,04,26,5.50
2014,04,02,04,27,5.50
2014,04,02,04,28,5.40
2014,04,02,04,29,5.30
2014,04,02,04,30,5.30
2014,04,02,04,31,5.20
2014,04,02,04,32,5.10
2014,04,02,04,33,5.10
2014,04,02,04,34,5.00
2014,04,02,04,35,5.00
2014,04,02,04,36,4.90
2014,04,02,04,37,4.90
2014,04,02,04,38,4.80
2014,04,02,04,39,4.80
2014,04,02,04,40,4.80
2014,04,02,04,41,4.80
2014,04,02,04,42,4.70
2014,04,02,04,43,4.70
2014,04,02,04,44,4.70
2014,04,02,04,45,4.70
2014,04,02,04,46,4.70
2014,04,02,04,47,4.70
2014,04,02,04,48,4.70
2014,04,02,04,49,4.60
2014,04,02,04,50,4.60
2014,04,02,04,51,4.60
2014,04,02,04,52,4.60
2014,04,02,04,53,4.50
2014,04,02,04,54,4.50
2014,04,02,04,55,4.50
2014,04,02,04,56,4.50
2014,04,02,04,57,4.50
2014,04,02,04,58,4.50
2014,04,02,04,59,4.40
2014,04,02,05,00,4.40
2014,04,02,05,01,4.40
2014,04,02,05,02,4.30
2014,04,02,05,03,4.30
2014,04,02,05,04,4.30
2014,04,02,05,05,4.30
2014,04,02,05,06,4.30
2014,04,02,05,07,4.20
2014,04,02,05,08,4.20
2014,04,02,05,09,4.20
2014,04,02,05,10,4.20
2014,04,02,05,11,4.20
2014,04,02,05,12,4.20
2014,04,02,05,13,4.10
2014,04,02,05,14,4.10
2014,04,02,05,15,4.10
2014,04,02,05,16,4.00
2014,04,02,05,17,4.00
2014,04,02,05,18,4.00
2014,04,02,05,19,3.90
2014,04,02,05,20,3.90
2014,04,02,05,21,3.90
2014,04,02,05,22,3.90
2014,04,02,05,23,3.90
2014,04,02,05,24,3.80
2014,04,02,05,25,3.80
2014,04,02,05,26,3.80
2014,04,02,05,27,3.80
2014,04,02,05,28,3.80
2014,04,02,05,29,3.80
2014,04,02,05,30,3.70
2014,04,02,05,31,3.70
2014,04,02,05,32,3.70
2014,04,02,05,33,3.70
2014,04,02,05,34,3.70
2014,04,02,05,35,3.70
2014,04,02,05,36,3.70
2014,04,02,05,37,3.70
2014,04,02,05,38,3.60
2014,04,02,05,39,3.60
2014,04,02,05,40,3.60
2014,04,02,05,41,3.60
2014,04,02,05,42,3.60
2014,04,02,05,43,3.60
2014,04,02,05,44,3.60
2014,04,02,05,45,3.60
2014,04,02,05,46,3.60
2014,04,02,05,47,3.50
2014,04,02,05,48,3.50
2014,04,02,05,49,3.50
2014,04,02,05,50,3.50
2014,04,02,05,51,3.50
2014,04,02,05,52,3.40
2014,04,02,05,53,3.40
2014,04,02,05,54,3.40
2014,04,02,05,55,3.40
2014,04,02,05,56,3.40
2014,04,02,05,57,3.40
2014,04,02,05,58,3.40
2014,04,02,05,59,3.40
2014,04,02,06,00,3.30
2014,04,02,06,01,3.30
2014,04,02,06,02,3.30
2014,04,02,06,03,3.30
2014,04,02,06,04,3.30
2014,04,02,06,05,3.30
2014,04,02,06,06,3.30
2014,04,02,06,07,3.20
2014,04,02,06,08,3.20
2014,04,02,06,09,3.20
2014,04,02,06,10,3.20
2014,04,02,06,11,3.20
2014,04,02,06,12,3.20
2014,04,02,06,13,3.20
2014,04,02,06,14,3.10
2014,04,02,06,15,3.10
2014,04,02,06,16,3.10
2014,04,02,06,17,3.10
2014,04,02,06,18,3.10
2014,04,02,06,19,3.10
2014,04,02,06,20,3.10
2014,04,02,06,21,3.10
2014,04,02,06,22,3.10
2014,04,02,06,23,3.00
2014,04,02,06,24,3.00
2014,04,02,06,25,3.00
2014,04,02,06,26,3.00
2014,04,02,06,27,2.90
2014,04,02,06,28,2.90
2014,04,02,06,29,2.90
2014,04,02,06,30,2.90
2014,04,02,06,31,2.90
2014,04,02,06,32,2.90
2014,04,02,06,33,2.90
2014,04,02,06,34,2.90
2014,04,02,06,35,2.90
2014,04,02,06,36,2.90
2014,04,02,06,37,2.90
2014,04,02,06,38,2.90
2014,04,02,06,39,2.90
2014,04,02,06,40,2.90
2014,04,02,06,41,2.90
2014,04,02,06,42,2.90
2014,04,02,06,43,2.90
2014,04,02,06,44,2.90
2014,04,02,06,45,2.90
2014,04,02,06,46,2.90
2014,04,02,06,47,2.90
2014,04,02,06,48,2.90
2014,04,02,06,49,2.90
2014,04,02,06,50,2.90
2014,04,02,06,51,2.90
2014,04,02,06,52,2.80
2014,04,02,06,53,2.80
2014,04,02,06,54,2.80
2014,04,02,06,55,2.80
2014,04,02,06,56,2.80
2014,04,02,06,57,2.80
2014,04,02,06,58,2.80
2014,04,02,06,59,2.80
2014,04,02,07,00,2.80
2014,04,02,07,01,2.80
2014,04,02,07,02,2.80
2014,04,02,07,03,2.80
2014,04,02,07,04,2.80
2014,04,02,07,05,2.80
2014,04,02,07,06,2.80
2014,04,02,07,07,2.80
2014,04,02,07,08,2.80
2014,04,02,07,09,2.80
2014,04,02,07,10,2.80
2014,04,02,07,11,2.80
2014,04,02,07,12,2.80
2014,04,02,07,13,2.80
2014,04,02,07,14,2.80
2014,04,02,07,15,2.80
2014,04,02,07,16,2.80
2014,04,02,07,17,2.80
2014,04,02,07,18,2.80
2014,04,02,07,19,2.80
2014,04,02,07,20,2.80
2014,04,02,07,21,2.80
2014,04,02,07,22,2.80
2014,04,02,07,23,2.90
2014,04,02,07,24,2.90
2014,04,02,07,25,2.90
2014,04,02,07,26,2.90
2014,04,02,07,27,2.90
2014,04,02,07,28,2.90
2014,04,02,07,29,2.90
2014,04,02,07,30,2.90
2014,04,02,07,31,2.90
2014,04,02,07,32,2.90
2014,04,02,07,33,2.90
2014,04,02,07,34,3.00
2014,04,02,07,35,3.00
2014,04,02,07,36,3.00
2014,04,02,07,37,3.00
2014,04,02,07,38,3.00
2014,04,02,07,39,3.00
2014,04,02,07,40,3.10
2014,04,02,07,41,3.10
2014,04,02,07,42,3.10
2014,04,02,07,43,3.10
2014,04,02,07,44,3.10
2014,04,02,07,45,3.20
2014,04,02,07,46,3.20
2014,04,02,07,47,3.20
2014,04,02,07,48,3.20
2014,04,02,07,49,3.20
2014,04,02,07,50,3.30
2014,04,02,07,51,3.30
2014,04,02,07,52,3.30
2014,04,02,07,53,3.30
2014,04,02,07,54,3.40
2014,04,02,07,55,3.40
2014,04,02,07,56,3.50
2014,04,02,07,57,3.50
2014,04,02,07,58,3.50
2014,04,02,07,59,3.50
2014,04,02,08,00,3.60
2014,04,02,08,01,3.60
2014,04,02,08,02,3.60
2014,04,02,08,03,3.60
2014,04,02,08,04,3.60
2014,04,02,08,05,3.70
2014,04,02,08,06,3.70
2014,04,02,08,07,3.70
2014,04,02,08,08,3.70
2014,04,02,08,09,3.70
2014,04,02,08,10,3.80
2014,04,02,08,11,3.80
2014,04,02,08,12,3.80
2014,04,02,08,13,3.80
2014,04,02,08,14,3.90
2014,04,02,08,15,3.90
2014,04,02,08,16,3.90
2014,04,02,08,17,4.00
2014,04,02,08,18,4.00
2014,04,02,08,19,4.00
2014,04,02,08,20,4.10
2014,04,02,08,21,4.10
2014,04,02,08,22,4.10
2014,04,02,08,23,4.20
2014,04,02,08,24,4.20
2014,04,02,08,25,4.30
2014,04,02,08,26,4.30
2014,04,02,08,27,4.40
2014,04,02,08,28,4.40
2014,04,02,08,29,4.50
2014,04,02,08,30,4.50
2014,04,02,08,31,4.60
2014,04,02,08,32,4.70
2014,04,02,08,33,4.70
2014,04,02,08,34,4.80
2014,04,02,08,35,4.80
2014,04,02,08,36,4.90
2014,04,02,08,37,5.00
2014,04,02,08,38,5.00
2014,04,02,08,39,5.10
2014,04,02,08,40,5.20
2014,04,02,08,41,5.30
2014,04,02,08,42,5.30
2014,04,02,08,43,5.50
2014,04,02,08,44,5.50
2014,04,02,08,45,5.60
2014,04,02,08,46,5.70
2014,04,02,08,47,5.80
2014,04,02,08,48,5.90
2014,04,02,08,49,5.90
2014,04,02,08,50,6.00
2014,04,02,08,51,6.10
2014,04,02,08,52,6.20
2014,04,02,08,53,6.30
2014,04,02,08,54,6.40
2014,04,02,08,55,6.50
2014,04,02,08,56,6.70
2014,04,02,08,57,6.80
2014,04,02,08,58,6.90
2014,04,02,08,59,7.00
2014,04,02,09,00,7.10
2014,04,02,09,01,7.20
2014,04,02,09,02,7.30
2014,04,02,09,03,7.40
2014,04,02,09,04,7.50
2014,04,02,09,05,7.60
2014,04,02,09,06,7.70
2014,04,02,09,07,7.80
2014,04,02,09,08,7.90
2014,04,02,09,09,8.00
2014,04,02,09,10,8.10
2014,04,02,09,11,8.20
2014,04,02,09,12,8.20
2014,04,02,09,13,8.30
2014,04,02,09,14,8.30
2014,04,02,09,15,8.40
2014,04,02,09,16,8.40
2014,04,02,09,17,8.50
2014,04,02,09,18,8.60
2014,04,02,09,19,8.60
2014,04,02,09,20,8.70
2014,04,02,09,21,8.70
2014,04,02,09,22,8.70
2014,04,02,09,23,8.70
2014,04,02,09,24,8.70
2014,04,02,09,25,8.80
2014,04,02,09,26,8.80
2014,04,02,09,27,8.80
2014,04,02,09,28,8.80
2014,04,02,09,29,8.80
2014,04,02,09,30,8.80
2014,04,02,09,31,8.80
2014,04,02,09,32,8.90
2014,04,02,09,33,8.90
2014,04,02,09,34,8.90
2014,04,02,09,35,9.00
2014,04,02,09,36,9.10
2014,04,02,09,37,9.10
2014,04,02,09,38,9.20
2014,04,02,09,39,9.20
2014,04,02,09,40,9.20
2014,04,02,09,41,9.30
2014,04,02,09,42,9.30
2014,04,02,09,43,9.30
2014,04,02,09,44,9.20
2014,04,02,09,45,9.20
2014,04,02,09,46,9.20
2014,04,02,09,47,9.20
2014,04,02,09,48,9.20
2014,04,02,09,49,9.30
2014,04,02,09,50,9.30
2014,04,02,09,51,9.30
2014,04,02,09,52,9.40
2014,04,02,09,53,9.40
2014,04,02,09,54,9.50
2014,04,02,09,55,9.50
2014,04,02,09,56,9.50
2014,04,02,09,57,9.60
2014,04,02,09,58,9.60
2014,04,02,09,59,9.70
2014,04,02,10,00,9.80
2014,04,02,10,01,9.80
2014,04,02,10,02,9.80
2014,04,02,10,03,9.90
2014,04,02,10,04,9.90
2014,04,02,10,05,9.90
2014,04,02,10,06,9.90
2014,04,02,10,07,10.00
2014,04,02,10,08,10.00
2014,04,02,10,09,10.10
2014,04,02,10,10,10.10
2014,04,02,10,11,10.10
2014,04,02,10,12,10.00
2014,04,02,10,13,10.00
2014,04,02,10,14,10.10
2014,04,02,10,15,10.10
2014,04,02,10,16,10.10
2014,04,02,10,17,10.20
2014,04,02,10,18,10.20
2014,04,02,10,19,10.30
2014,04,02,10,20,10.40
2014,04,02,10,21,10.50
2014,04,02,10,22,10.50
2014,04,02,10,23,10.60
2014,04,02,10,24,10.70
2014,04,02,10,25,10.70
2014,04,02,10,26,10.80
2014,04,02,10,27,10.80
2014,04,02,10,28,10.80
2014,04,02,10,29,10.90
2014,04,02,10,30,10.90
2014,04,02,10,31,10.90
2014,04,02,10,32,10.80
2014,04,02,10,33,10.80
2014,04,02,10,34,10.70
2014,04,02,10,35,10.70
2014,04,02,10,36,10.70
2014,04,02,10,37,10.70
2014,04,02,10,38,10.70
2014,04,02,10,39,10.80
2014,04,02,10,40,10.80
2014,04,02,10,41,10.90
2014,04,02,10,42,11.00
2014,04,02,10,43,11.00
2014,04,02,10,44,11.00
2014,04,02,10,45,11.10
2014,04,02,10,46,11.10
2014,04,02,10,47,11.20
2014,04,02,10,48,11.20
2014,04,02,10,49,11.30
2014,04,02,10,50,11.30
2014,04,02,10,51,11.20
2014,04,02,10,52,11.20
2014,04,02,10,53,11.20
2014,04,02,10,54,11.20
2014,04,02,10,55,11.20
2014,04,02,10,56,11.20
2014,04,02,10,57,11.20
2014,04,02,10,58,11.30
2014,04,02,10,59,11.40
2014,04,02,11,00,11.40
2014,04,02,11,01,11.50
2014,04,02,11,02,11.50
2014,04,02,11,03,11.60
2014,04,02,11,04,11.60
2014,04,02,11,05,11.50
2014,04,02,11,06,11.50
2014,04,02,11,07,11.30
2014,04,02,11,08,11.30
2014,04,02,11,09,11.30
2014,04,02,11,10,11.20
2014,04,02,11,11,11.20
2014,04,02,11,12,11.20
2014,04,02,11,13,11.20
2014,04,02,11,14,11.20
2014,04,02,11,15,11.20
2014,04,02,11,16,11.30
2014,04,02,11,17,11.30
2014,04,02,11,18,11.30
2014,04,02,11,19,11.30
2014,04,02,11,20,11.30
2014,04,02,11,21,11.30
2014,04,02,11,22,11.30
2014,04,02,11,23,11.30
2014,04,02,11,24,11.30
2014,04,02,11,25,11.30
2014,04,02,11,26,11.40
2014,04,02,11,27,11.40
2014,04,02,11,28,11.30
2014,04,02,11,29,11.30
2014,04,02,11,30,11.20
2014,04,02,11,31,11.20
2014,04,02,11,32,11.20
2014,04,02,11,33,11.20
2014,04,02,11,34,11.10
2014,04,02,11,35,11.10
2014,04,02,11,36,11.10
2014,04,02,11,37,11.10
2014,04,02,11,38,11.10
2014,04,02,11,39,11.10
2014,04,02,11,40,11.00
2014,04,02,11,41,11.00
2014,04,02,11,42,10.90
2014,04,02,11,43,10.90
2014,04,02,11,44,10.90
2014,04,02,11,45,10.80
2014,04,02,11,46,10.80
2014,04,02,11,47,10.70
2014,04,02,11,48,10.70
2014,04,02,11,49,10.60
2014,04,02,11,50,10.60
2014,04,02,11,51,10.70
2014,04,02,11,52,10.70
2014,04,02,11,53,10.70
2014,04,02,11,54,10.80
2014,04,02,11,55,10.80
2014,04,02,11,56,10.90
2014,04,02,11,57,10.90
2014,04,02,11,58,10.90
2014,04,02,11,59,10.80
2014,04,02,12,00,10.70
2014,04,02,12,01,10.60
2014,04,02,12,02,10.50
2014,04,02,12,03,10.40
2014,04,02,12,04,10.40
2014,04,02,12,05,10.30
2014,04,02,12,06,10.30
2014,04,02,12,07,10.30
2014,04,02,12,08,10.30
2014,04,02,12,09,10.30
2014,04,02,12,10,10.40
2014,04,02,12,11,10.40
2014,04,02,12,12,10.40
2014,04,02,12,13,10.50
2014,04,02,12,14,10.50
2014,04,02,12,15,10.50
2014,04,02,12,16,10.60
2014,04,02,12,17,10.60
2014,04,02,12,18,10.60
2014,04,02,12,19,10.70
2014,04,02,12,20,10.70
2014,04,02,12,21,10.80
2014,04,02,12,22,10.80
2014,04,02,12,23,10.70
2014,04,02,12,24,10.80
2014,04,02,12,25,10.80
2014,04,02,12,26,10.80
2014,04,02,12,27,10.80
2014,04,02,12,28,10.80
2014,04,02,12,29,10.80
2014,04,02,12,30,10.80
2014,04,02,12,31,10.80
2014,04,02,12,32,10.80
2014,04,02,12,33,10.70
2014,04,02,12,34,10.70
2014,04,02,12,35,10.70
2014,04,02,12,36,10.70
2014,04,02,12,37,10.80
2014,04,02,12,38,10.90
2014,04,02,12,39,10.90
2014,04,02,12,40,11.00
2014,04,02,12,41,11.10
2014,04,02,12,42,11.10
2014,04,02,12,43,11.10
2014,04,02,12,44,11.20
2014,04,02,12,45,11.30
2014,04,02,12,46,11.30
2014,04,02,12,47,11.30
2014,04,02,12,48,11.30
2014,04,02,12,49,11.30
2014,04,02,12,50,11.30
2014,04,02,12,51,11.30
2014,04,02,12,52,11.30
2014,04,02,12,53,11.30
2014,04,02,12,54,11.20
2014,04,02,12,55,11.20
2014,04,02,12,56,11.20
2014,04,02,12,57,11.20
2014,04,02,12,58,11.20
2014,04,02,12,59,11.10
2014,04,02,13,00,11.10
2014,04,02,13,01,11.10
2014,04,02,13,02,11.10
2014,04,02,13,03,11.10
2014,04,02,13,04,11.10
2014,04,02,13,05,11.10
2014,04,02,13,06,11.20
2014,04,02,13,07,11.30
2014,04,02,13,08,11.30
2014,04,02,13,09,11.30
2014,04,02,13,10,11.40
2014,04,02,13,11,11.40
2014,04,02,13,12,11.40
2014,04,02,13,13,11.50
2014,04,02,13,14,11.50
2014,04,02,13,15,11.50
2014,04,02,13,16,11.50
2014,04,02,13,17,11.60
2014,04,02,13,18,11.60
2014,04,02,13,19,11.60
2014,04,02,13,20,11.60
2014,04,02,13,21,11.60
2014,04,02,13,22,11.60
2014,04,02,13,23,11.70
2014,04,02,13,24,11.60
2014,04,02,13,25,11.60
2014,04,02,13,26,11.40
2014,04,02,13,27,11.30
2014,04,02,13,28,11.20
2014,04,02,13,29,11.20
2014,04,02,13,30,11.20
2014,04,02,13,31,11.30
2014,04,02,13,32,11.30
2014,04,02,13,33,11.40
2014,04,02,13,34,11.40
2014,04,02,13,35,11.40
2014,04,02,13,36,11.50
2014,04,02,13,37,11.50
2014,04,02,13,38,11.60
2014,04,02,13,39,11.60
2014,04,02,13,40,11.60
2014,04,02,13,41,11.50
2014,04,02,13,42,11.50
2014,04,02,13,43,11.50
2014,04,02,13,44,11.50
2014,04,02,13,45,11.50
2014,04,02,13,46,11.40
2014,04,02,13,47,11.40
2014,04,02,13,48,11.30
2014,04,02,13,49,11.30
2014,04,02,13,50,11.30
2014,04,02,13,51,11.20
2014,04,02,13,52,11.20
2014,04,02,13,53,11.10
2014,04,02,13,54,11.10
2014,04,02,13,55,11.10
2014,04,02,13,56,11.00
2014,04,02,13,57,10.90
2014,04,02,13,58,10.80
2014,04,02,13,59,10.80
2014,04,02,14,00,10.80
2014,04,02,14,01,10.80
2014,04,02,14,02,10.80
2014,04,02,14,03,10.80
2014,04,02,14,04,10.80
2014,04,02,14,05,10.90
2014,04,02,14,06,10.90
2014,04,02,14,07,10.90
2014,04,02,14,08,11.00
2014,04,02,14,09,11.10
2014,04,02,14,10,11.10
2014,04,02,14,11,11.10
2014,04,02,14,12,11.20
2014,04,02,14,13,11.20
2014,04,02,14,14,11.20
2014,04,02,14,15,11.10
2014,04,02,14,16,11.10
2014,04,02,14,17,11.10
2014,04,02,14,18,11.10
2014,04,02,14,19,11.10
2014,04,02,14,20,11.20
2014,04,02,14,21,11.20
2014,04,02,14,22,11.20
2014,04,02,14,23,11.20
2014,04,02,14,24,11.20
2014,04,02,14,25,11.30
2014,04,02,14,26,11.30
2014,04,02,14,27,11.30
2014,04,02,14,28,11.30
2014,04,02,14,29,11.20
2014,04,02,14,30,11.20
2014,04,02,14,31,11.20
2014,04,02,14,32,11.20
2014,04,02,14,33,11.10
2014,04,02,14,34,11.00
2014,04,02,14,35,11.00
2014,04,02,14,36,10.90
2014,04,02,14,37,10.90
2014,04,02,14,38,10.80
2014,04,02,14,39,10.80
2014,04,02,14,40,10.80
2014,04,02,14,41,10.80
2014,04,02,14,42,10.80
2014,04,02,14,43,10.80
2014,04,02,14,44,10.70
2014,04,02,14,45,10.70
2014,04,02,14,46,10.60
2014,04,02,14,47,10.60
2014,04,02,14,48,10.60
2014,04,02,14,49,10.60
2014,04,02,14,50,10.60
2014,04,02,14,51,10.70
2014,04,02,14,52,10.80
2014,04,02,14,53,10.80
2014,04,02,14,54,10.90
2014,04,02,14,55,10.90
2014,04,02,14,56,10.80
2014,04,02,14,57,10.90
2014,04,02,14,58,10.90
2014,04,02,14,59,10.90
2014,04,02,15,00,10.90
2014,04,02,15,01,10.80
2014,04,02,15,02,10.80
2014,04,02,15,03,10.80
2014,04,02,15,04,10.80
2014,04,02,15,05,10.90
2014,04,02,15,06,10.90
2014,04,02,15,07,10.90
2014,04,02,15,08,10.90
2014,04,02,15,09,10.90
2014,04,02,15,10,10.90
2014,04,02,15,11,10.90
2014,04,02,15,12,10.90
2014,04,02,15,13,10.90
2014,04,02,15,14,10.90
2014,04,02,15,15,10.90
2014,04,02,15,16,11.00
2014,04,02,15,17,11.00
2014,04,02,15,18,11.10
2014,04,02,15,19,11.10
2014,04,02,15,20,11.10
2014,04,02,15,21,11.10
2014,04,02,15,22,11.10
2014,04,02,15,23,11.20
2014,04,02,15,24,11.20
2014,04,02,15,25,11.20
2014,04,02,15,26,11.30
2014,04,02,15,27,11.30
2014,04,02,15,28,11.30
2014,04,02,15,29,11.30
2014,04,02,15,30,11.30
2014,04,02,15,31,11.30
2014,04,02,15,32,11.30
2014,04,02,15,33,11.30
2014,04,02,15,34,11.30
2014,04,02,15,35,11.30
2014,04,02,15,36,11.40
2014,04,02,15,37,11.50
2014,04,02,15,38,11.50
2014,04,02,15,39,11.60
2014,04,02,15,40,11.60
2014,04,02,15,41,11.60
2014,04,02,15,42,11.60
2014,04,02,15,43,11.60
2014,04,02,15,44,11.60
2014,04,02,15,45,11.60
2014,04,02,15,46,11.60
2014,04,02,15,47,11.60
2014,04,02,15,48,11.70
2014,04,02,15,49,11.70
2014,04,02,15,50,11.60
2014,04,02,15,51,11.60
2014,04,02,15,52,11.60
2014,04,02,15,53,11.50
2014,04,02,15,54,11.50
2014,04,02,15,55,11.40
2014,04,02,15,56,11.40
2014,04,02,15,57,11.40
2014,04,02,15,58,11.50
2014,04,02,15,59,11.50
2014,04,02,16,00,11.50
2014,04,02,16,01,11.50
2014,04,02,16,02,11.50
2014,04,02,16,03,11.60
2014,04,02,16,04,11.60
2014,04,02,16,05,11.70
2014,04,02,16,06,11.70
2014,04,02,16,07,11.70
2014,04,02,16,08,11.80
2014,04,02,16,09,11.80
2014,04,02,16,10,11.80
2014,04,02,16,11,11.80
2014,04,02,16,12,11.90
2014,04,02,16,13,11.90
2014,04,02,16,14,11.90
2014,04,02,16,15,11.90
2014,04,02,16,16,11.90
2014,04,02,16,17,11.90
2014,04,02,16,18,11.80
2014,04,02,16,19,11.90
2014,04,02,16,20,11.90
2014,04,02,16,21,11.90
2014,04,02,16,22,11.90
2014,04,02,16,23,11.90
2014,04,02,16,24,11.90
2014,04,02,16,25,11.90
2014,04,02,16,26,11.90
2014,04,02,16,27,11.90
2014,04,02,16,28,11.90
2014,04,02,16,29,11.90
2014,04,02,16,30,11.90
2014,04,02,16,31,11.90
2014,04,02,16,32,11.90
2014,04,02,16,33,11.90
2014,04,02,16,34,11.90
2014,04,02,16,35,11.80
2014,04,02,16,36,11.80
2014,04,02,16,37,11.80
2014,04,02,16,38,11.70
2014,04,02,16,39,11.70
2014,04,02,16,40,11.70
2014,04,02,16,41,11.70
2014,04,02,16,42,11.70
2014,04,02,16,43,11.70
2014,04,02,16,44,11.70
2014,04,02,16,45,11.70
2014,04,02,16,46,11.70
2014,04,02,16,47,11.80
2014,04,02,16,48,11.80
2014,04,02,16,49,11.70
2014,04,02,16,50,11.70
2014,04,02,16,51,11.70
2014,04,02,16,52,11.80
2014,04,02,16,53,11.80
2014,04,02,16,54,11.80
2014,04,02,16,55,11.80
2014,04,02,16,56,11.80
2014,04,02,16,57,11.80
2014,04,02,16,58,11.80
2014,04,02,16,59,11.90
2014,04,02,17,00,11.90
2014,04,02,17,01,11.90
2014,04,02,17,02,11.90
2014,04,02,17,03,11.90
2014,04,02,17,04,11.90
2014,04,02,17,05,12.00
2014,04,02,17,06,12.00
2014,04,02,17,07,12.00
2014,04,02,17,08,12.00
2014,04,02,17,09,12.00
2014,04,02,17,10,12.10
2014,04,02,17,11,12.10
2014,04,02,17,12,12.10
2014,04,02,17,13,12.00
2014,04,02,17,14,12.00
2014,04,02,17,15,12.00
2014,04,02,17,16,12.10
2014,04,02,17,17,12.10
2014,04,02,17,18,12.10
2014,04,02,17,19,12.10
2014,04,02,17,20,12.10
2014,04,02,17,21,12.10
2014,04,02,17,22,12.10
2014,04,02,17,23,12.10
2014,04,02,17,24,12.10
2014,04,02,17,25,12.10
2014,04,02,17,26,12.00
2014,04,02,17,27,12.00
2014,04,02,17,28,11.90
2014,04,02,17,29,11.90
2014,04,02,17,30,11.90
2014,04,02,17,31,11.90
2014,04,02,17,32,11.90
2014,04,02,17,33,11.80
2014,04,02,17,34,11.80
2014,04,02,17,35,11.80
2014,04,02,17,36,11.80
2014,04,02,17,37,11.80
2014,04,02,17,38,11.80
2014,04,02,17,39,11.80
2014,04,02,17,40,11.80
2014,04,02,17,41,11.70
2014,04,02,17,42,11.70
2014,04,02,17,43,11.70
2014,04,02,17,44,11.70
2014,04,02,17,45,11.70